Bluefield, WV

5:30 AM EDT on August 18, 2017 (GMT -0400)
Mercer County

Weather History for KBLF - November, 2012

Change the Weather History Date:

Monday, November 12, 2012

  Actual Average Record
Temperature  
Mean Temperature 62 °F 48 °F  
Max Temperature 65 °F 57 °F 70 °F (1982)
Min Temperature 59 °F 40 °F 19 °F (1995)
Degree Days  
Heating Degree Days 3 17  
Month to date heating degree days 236 178  
Since 1 July heating degree days 658 542  
Cooling Degree Days 0 0  
Month to date cooling degree days 0 0  
Year to date cooling degree days 1007 851  
Growing Degree Days 1 (Base 50)    
Moisture  
Dew Point 45 °F    
Average Humidity 60    
Maximum Humidity 64    
Minimum Humidity 56    
Precipitation  
Precipitation 0.00 in 0.08 in 0.99 in (2004)
Month to date precipitation 0.17 1.03  
Year to date precipitation 40.01 35.06  
Snow  
Snow 0.00 in - - ()
Month to date snowfall T  
Since 1 July snowfall 9.6  
Since 1 September snowfall 9.6  
Snow Depth 0.00 in    
Sea Level Pressure  
Sea Level Pressure 30.23 in    
Wind  
Wind Speed 10 mph (SW)    
Max Wind Speed 21 mph    
Max Gust Speed 40 mph    
Visibility 9 miles    
Events Rain    
T = Trace of Precipitation, MM = Missing Value Source: NWS Daily Summary

Daily Weather History Graph

Daily Weather History Graph

Search for Another Location

Airport or City:

Trip Planner

Search our weather history database for the weather conditions in past years. The results will help you decide how hot, cold, wet, or windy it might be!

Date:

Astronomy

Nov. 12, 2012 Rise Set
Actual Time 7:01 AM EST 5:16 PM EST
Civil Twilight 6:33 AM EST 5:43 PM EST
Nautical Twilight 6:02 AM EST 6:15 PM EST
Astronomical Twilight 5:31 AM EST 6:46 PM EST
Moon 5:26 AM EST (11/12) 4:19 PM EST (11/12)
Length of Visible Light 11h 10m
Length of Day
10h 14m
Waning Crescent, 2% of the Moon is Illuminated
Nov 12
Waning Crescent
Nov 13
New
Nov 20
First Quarter
Nov 28
Full
Dec 6
Last Quarter

Hourly Weather History & Observations

Time (EST) Temp. Windchill Dew Point Humidity Pressure Visibility Wind Dir Wind Speed Gust Speed Precip Events Conditions
12:52 AM 59.0 °F - 46.0 °F 62% 30.25 in 10.0 mi Variable 4.6 mph 19.6 mph N/A   Scattered Clouds
1:52 AM 60.1 °F - 46.9 °F 62% 30.25 in 10.0 mi SE 11.5 mph 21.9 mph N/A   Overcast
2:32 AM 60.8 °F - 46.4 °F 59% 30.32 in 10.0 mi South 10.4 mph 18.4 mph N/A   Overcast
2:52 AM 60.1 °F - 46.9 °F 62% 30.23 in 10.0 mi Variable 5.8 mph - N/A   Overcast
3:52 AM 60.1 °F - 48.0 °F 64% 30.22 in 10.0 mi SSW 11.5 mph 20.7 mph N/A   Overcast
4:52 AM 60.1 °F - 46.9 °F 62% 30.22 in 10.0 mi South 12.7 mph 17.3 mph N/A   Overcast
5:31 AM 60.8 °F - 48.2 °F 63% 30.28 in 10.0 mi South 9.2 mph 27.6 mph N/A   Overcast
5:52 AM 60.1 °F - 48.0 °F 64% 30.22 in 10.0 mi Variable 6.9 mph 18.4 mph N/A   Overcast
7:36 AM 60.8 °F - 46.4 °F 59% 30.28 in 10.0 mi SSW 19.6 mph 28.8 mph N/A   Overcast
7:52 AM 60.1 °F - 46.0 °F 60% 30.22 in 10.0 mi SSE 9.2 mph 24.2 mph N/A   Mostly Cloudy
8:52 AM 61.0 °F - 46.0 °F 58% 30.24 in 10.0 mi South 8.1 mph 26.5 mph N/A   Overcast
9:27 AM 60.8 °F - 46.4 °F 59% 30.31 in 10.0 mi SSW 11.5 mph 26.5 mph N/A   Overcast
9:52 AM 61.0 °F - 48.0 °F 62% 30.25 in 10.0 mi South 9.2 mph 20.7 mph N/A   Overcast
10:12 AM 62.6 °F - 48.2 °F 59% 30.31 in 10.0 mi SSE 9.2 mph 18.4 mph N/A   Overcast
10:52 AM 63.0 °F - 46.9 °F 56% 30.22 in 10.0 mi South 9.2 mph - N/A   Mostly Cloudy
11:52 AM 63.0 °F - 46.9 °F 56% 30.18 in 10.0 mi South 11.5 mph 26.5 mph N/A   Partly Cloudy
12:52 PM 63.0 °F - 48.0 °F 58% 30.16 in 10.0 mi SSW 9.2 mph 19.6 mph N/A   Overcast
1:52 PM 63.0 °F - 46.9 °F 56% 30.12 in 10.0 mi South 11.5 mph 25.3 mph N/A   Partly Cloudy
2:52 PM 63.0 °F - 48.0 °F 58% 30.10 in 10.0 mi SSW 13.8 mph 25.3 mph N/A   Partly Cloudy
3:52 PM 63.0 °F - 48.9 °F 60% 30.10 in 10.0 mi South 12.7 mph 24.2 mph N/A   Mostly Cloudy
4:52 PM 62.1 °F - 48.9 °F 62% 30.12 in 10.0 mi SSW 10.4 mph 19.6 mph 0.00 in Rain Light Rain
5:52 PM 59.0 °F - 52.0 °F 78% 30.14 in 10.0 mi SSW 5.8 mph - 0.02 in Rain Light Rain
6:39 PM 55.4 °F - 50.0 °F 82% 30.21 in 7.0 mi WNW 13.8 mph 21.9 mph 0.02 in Rain Light Rain
6:52 PM 52.0 °F - 46.9 °F 83% 30.18 in 4.0 mi NW 12.7 mph 19.6 mph 0.07 in Rain Rain
7:24 PM 48.2 °F - 44.6 °F 87% 30.24 in 5.0 mi West 11.5 mph - 0.07 in Rain Light Rain
7:38 PM 48.2 °F - 44.6 °F 87% 30.24 in 5.0 mi WNW 8.1 mph - 0.09 in Rain Rain
7:52 PM 48.9 °F - 45.0 °F 86% 30.22 in 7.0 mi West 9.2 mph - 0.11 in Rain Light Rain
8:52 PM 46.9 °F - 43.0 °F 86% 30.24 in 6.0 mi WNW 8.1 mph - 0.05 in Rain Light Rain
9:52 PM 42.1 °F 36.1 °F 37.0 °F 82% 30.28 in 5.0 mi NW 10.4 mph - 0.02 in Rain Light Rain
10:52 PM 39.9 °F 32.9 °F 36.0 °F 86% 30.29 in 7.0 mi WNW 11.5 mph - 0.08 in Rain Light Rain
11:20 PM 39.2 °F 34.2 °F 35.6 °F 87% 30.31 in 10.0 mi WNW 6.9 mph - 0.00 in   Overcast
11:28 PM 39.2 °F 35.0 °F 35.6 °F 87% 30.31 in 10.0 mi NW 5.8 mph - 0.00 in   Overcast
11:41 PM 39.2 °F 35.9 °F 35.6 °F 87% 30.31 in 10.0 mi Variable 4.6 mph - 0.00 in   Overcast
11:52 PM 39.0 °F 33.4 °F 34.0 °F 82% 30.29 in 10.0 mi WNW 8.1 mph - 0.00 in Rain Light Rain